[[{"header":{"parameterUnit":"m.s-1","parameterCategory":1,"la1":30.2991,"la2":30.254,"lo1":-89.0895,"lo2":-89.0444,"dy":0.0017,"dx":0.0017,"nx":28,"ny":28,"refTime":"2023-09-01T09:00:00:Z","depth":0,"parameterNumber":2,"parameterNumberName":"U-component_of_WINDS"},"data":[0,0,0,0,0,0,0,0,0,0,0,0,0,0,0,0,0,0,0,0,0,0,0,0,0,0,0,0,0,0,0,0,0,0,0,0,0,0,0,0,0,0,0,0,0,0,0,0,0,0,0,0,0,0,0,0,0,0,-1.0175,-1.0175,0,-1.02,-1.02,-1.0201,-1.0237,-1.0238,-1.0238,-1.0239,-1.0264,-1.0264,-1.0264,0,0,0,0,0,0,0,0,0,0,0,0,0,-1.0158,-1.0158,-1.0175,-1.0175,-1.0175,-1.02,-1.02,-1.0201,-1.0237,-1.0238,-1.0238,-1.0239,-1.0264,-1.0264,-1.0264,0,0,0,0,0,0,0,0,0,0,0,0,0,-1.0173,-1.0158,-1.0175,-1.0196,-1.0199,-1.02,-1.02,-1.0201,-1.0237,-1.0238,-1.0239,-1.0239,-1.0264,-1.0264,-1.0264,-1.0246,0,0,-1.0265,-1.0265,0,0,0,0,0,0,0,0,-1.0172,-1.0173,-1.0193,-1.0195,-1.0197,-1.0216,-1.0204,-1.0216,-1.0236,-1.0222,-1.0239,-1.024,-1.0247,-1.0249,-1.0252,-1.0247,-1.0248,-1.0265,-1.0265,-1.0265,-1.0265,0,0,0,0,0,0,0,-1.0171,-1.0172,-1.0185,-1.0193,-1.0196,-1.0205,-1.0208,-1.0206,-1.0229,-1.0224,-1.0226,-1.0229,-1.0249,-1.0251,-1.0252,-1.0249,-1.0265,-1.0265,-1.0265,-1.0265,-1.0231,-1.023,0,0,0,0,0,0,-1.0167,-1.0171,-1.0184,-1.0185,-1.0187,-1.0205,-1.0208,-1.0209,-1.0229,-1.0233,-1.0228,-1.023,-1.0251,-1.0252,-1.0253,-1.0233,-1.0265,-1.0265,-1.0265,-1.0232,-1.0231,-1.023,0,0,0,0,0,0,-1.0166,-1.0167,-1.0183,-1.0179,-1.0182,-1.0204,-1.0205,-1.0209,-1.0212,-1.0233,-1.0237,-1.0226,-1.0251,-1.0253,-1.0248,-1.0235,-1.0265,-1.0265,-1.0233,-1.0232,-1.0231,-1.0193,0,0,0,0,0,0,-1.0165,-1.0167,-1.016,-1.0179,-1.0182,-1.0176,-1.0204,-1.0209,-1.0212,-1.0215,-1.0232,-1.0236,-1.0252,-1.0247,-1.0248,-1.0235,-1.0265,-1.0235,-1.0233,-1.0231,-1.0195,-1.019,-1.0186,0,0,0,0,0,-1.0165,-1.0148,-1.0159,-1.0161,-1.0174,-1.0176,-1.0177,-1.0197,-1.0211,-1.0204,-1.0218,-1.0235,-1.0237,-1.0246,-1.0247,-1.0235,-1.0236,-1.0233,-1.0231,-1.0197,-1.0191,-1.0186,0,0,0,0,0,0,-1.0126,-1.0151,-1.0164,-1.0152,-1.0162,-1.0182,-1.0174,-1.019,-1.0195,-1.0198,-1.0222,-1.0225,-1.0217,-1.0226,-1.0236,-1.0219,-1.0239,-1.0237,-1.0213,-1.0207,-1.0202,-1.02,-1.0265,0,0,0,0,0,-1.0117,-1.0116,-1.0138,-1.0126,-1.013,-1.0151,-1.0153,-1.0167,-1.0177,-1.0181,-1.0195,-1.0204,-1.0207,-1.0208,-1.0211,-1.0198,-1.0202,-1.0189,-1.0185,-1.0181,-1.0178,-1.0172,-1.0166,-1.0223,-1.0223,-1.0223,0,0,-1.0097,-1.011,-1.0108,-1.0119,-1.0127,-1.0126,-1.0154,-1.0152,-1.0151,-1.0181,-1.0176,-1.0187,-1.0199,-1.0189,-1.0186,-1.0196,-1.0164,-1.0178,-1.0175,-1.0174,-1.0169,-1.0163,-1.0159,-1.0222,-1.0222,-1.0222,0,0,-1.0059,-1.0069,-1.006,-1.0069,-1.0083,-1.0097,-1.0095,-1.0113,-1.0121,-1.0117,-1.014,-1.014,-1.0144,-1.0151,-1.0156,-1.0123,-1.014,-1.0124,-1.0099,-1.0092,-1.0088,-1.0084,-1.0071,-1.0067,-1.0122,-1.0122,-1.0122,0,-1.0032,-1.0031,-1.0054,-1.005,-1.0054,-1.0083,-1.0074,-1.0081,-1.0095,-1.0097,-1.0109,-1.0115,-1.0126,-1.0118,-1.011,-1.0113,-1.0112,-1.0121,-1.0087,-1.0083,-1.008,-1.0068,-1.0064,-1.012,-1.012,-1.012,-1.012,0,-0.9997,-0.9996,-0.9988,-1.0001,-1.0004,-0.9998,-1.002,-1.0021,-1.0036,-1.0049,-1.0045,-1.0059,-1.0065,-1.0065,-1.0079,-1.006,-1.0066,-1.0082,-1.0103,-1.0072,-1.0061,-1.0057,-1.0117,-1.0117,-1.0118,-1.0118,0,0,-0.9934,-0.9961,-0.9957,-0.9963,-0.9981,-0.9981,-0.9977,-0.9984,-0.9984,-0.9993,-0.999,-0.9994,-1.0009,-1.0014,-1.003,-1.0024,-0.9997,-1.0041,-1.0042,-1.0031,-0.9976,-0.9963,-0.9957,-1.0009,-1.0008,-1.0008,-0.9975,0,-0.9898,-0.9892,-0.9913,-0.9901,-0.9901,-0.9929,-0.9925,-0.9936,-0.9949,-0.9951,-0.9965,-0.9967,-0.9987,-0.9991,-0.9987,-1.0001,-0.9986,-1.0004,-1.0005,-1.0005,-1.0,-0.9952,-0.9938,-0.9906,-0.9971,-0.997,-0.997,0,-0.9856,-0.9863,-0.9851,-0.987,-0.9871,-0.9867,-0.9876,-0.9878,-0.9891,-0.9901,-0.9907,-0.9926,-0.9923,-0.9945,-0.9941,-0.9953,-0.9956,-0.9963,-0.9962,-0.9962,-0.9984,-0.9949,-0.9896,-0.9891,-0.9964,-0.9964,-0.9965,0,-0.9809,-0.9817,-0.9811,-0.9815,-0.9838,-0.9834,-0.9844,-0.9858,-0.9861,-0.9869,-0.9872,-0.9879,-0.9883,-0.9889,-0.9909,-0.9923,-0.9903,-0.9926,-0.9911,-0.991,-0.9904,-0.9903,-0.9849,-0.9908,-0.9908,-0.9908,-0.9908,0,-0.9767,-0.9758,-0.979,-0.9786,-0.9778,-0.9803,-0.9794,-0.9806,-0.9818,-0.9817,-0.9843,-0.9841,-0.9869,-0.9871,-0.9888,-0.9882,-0.9884,-0.9892,-0.9896,-0.9888,-0.9887,-0.9889,-0.9891,-0.9907,-0.9907,-0.9907,-0.9908,0,-0.9712,-0.9734,-0.9729,-0.9751,-0.9756,-0.9749,-0.9768,-0.9766,-0.9781,-0.978,-0.9781,-0.9805,-0.9808,-0.983,-0.9839,-0.985,-0.9838,-0.9847,-0.9833,-0.9836,-0.9819,-0.9819,-0.9762,-0.9756,-0.982,-0.9819,-0.9819,0,-0.9683,-0.9677,-0.9699,-0.97,-0.9708,-0.971,-0.9714,-0.9739,-0.9742,-0.9757,-0.9753,-0.9759,-0.9765,-0.9769,-0.9788,-0.9795,-0.9803,-0.9783,-0.9804,-0.9797,-0.9802,-0.9801,-0.98,-0.9777,-0.9777,-0.9776,-0.9776,0,-0.9628,-0.9639,-0.9643,-0.9652,-0.9655,-0.9663,-0.9672,-0.9672,-0.97,-0.9702,-0.9707,-0.9711,-0.9721,-0.9726,-0.9736,-0.9746,-0.9765,-0.9769,-0.9766,-0.9757,-0.9748,-0.9752,-0.9819,-0.977,-0.977,-0.9771,-0.9771,-0.9771,-0.9584,-0.958,-0.9595,-0.9599,-0.9609,-0.9618,-0.9616,-0.9632,-0.9636,-0.9646,-0.9661,-0.9663,-0.9678,-0.9694,-0.9702,-0.9704,-0.9715,-0.9711,-0.9709,-0.9707,-0.9703,-0.975,-0.9707,-0.9707,-0.9707,-0.9707,-0.9707,0,-0.9529,-0.9541,-0.9545,-0.9557,-0.9561,-0.958,-0.9591,-0.9593,-0.9594,-0.9606,-0.9612,-0.9617,-0.9623,-0.9643,-0.965,-0.9649,-0.9657,-0.965,-0.9649,-0.9651,-0.9693,-0.9695,-0.9642,-0.9642,-0.9642,-0.9642,-0.9642,-0.9642,-0.9501,-0.9495,-0.9509,-0.9508,-0.952,-0.9522,-0.9527,-0.9535,-0.9545,-0.955,-0.9555,-0.9568,-0.9583,-0.9593,-0.9599,-0.9605,-0.9606,-0.9595,-0.9603,-0.9642,-0.9648,-0.9654,-0.9655,-0.9595,-0.9595,-0.956,-0.956,-0.956]},{"header":{"parameterUnit":"m.s-1","parameterCategory":1,"la1":30.2991,"la2":30.254,"lo1":-89.0895,"lo2":-89.0444,"dy":0.0017,"dx":0.0017,"nx":28,"ny":28,"refTime":"2023-09-01T09:00:00:Z","depth":0,"parameterNumber":3,"parameterNumberName":"V-component_of_WINDS"},"data":[0,0,0,0,0,0,0,0,0,0,0,0,0,0,0,0,0,0,0,0,0,0,0,0,0,0,0,0,0,0,0,0,0,0,0,0,0,0,0,0,0,0,0,0,0,0,0,0,0,0,0,0,0,0,0,0,0,0,1.5274,1.5273,0,1.5206,1.5205,1.5205,1.5194,1.5195,1.5196,1.5196,1.5122,1.512,1.5117,0,0,0,0,0,0,0,0,0,0,0,0,0,1.5388,1.5386,1.5274,1.5273,1.5272,1.5206,1.5205,1.5204,1.5194,1.5195,1.5196,1.5196,1.5123,1.512,1.5117,0,0,0,0,0,0,0,0,0,0,0,0,0,1.5331,1.5386,1.5274,1.5259,1.5257,1.5207,1.5205,1.5204,1.5194,1.5195,1.5196,1.5197,1.5124,1.5121,1.5117,1.5075,0,0,1.5105,1.5104,0,0,0,0,0,0,0,0,1.5335,1.5327,1.5262,1.526,1.5258,1.521,1.5219,1.5161,1.5194,1.5218,1.5196,1.5197,1.515,1.5145,1.513,1.5071,1.5068,1.5105,1.5103,1.5101,1.51,0,0,0,0,0,0,0,1.5338,1.533,1.5247,1.5261,1.5259,1.5254,1.5247,1.5208,1.518,1.5216,1.5215,1.5207,1.5149,1.5133,1.5128,1.5067,1.5105,1.5102,1.5099,1.5098,1.4968,1.4967,0,0,0,0,0,0,1.5346,1.5333,1.5249,1.5245,1.5299,1.5251,1.5243,1.5224,1.518,1.5174,1.5207,1.5207,1.5139,1.5132,1.5125,1.5071,1.5101,1.5097,1.5095,1.4969,1.4968,1.4966,0,0,0,0,0,0,1.5348,1.5338,1.5252,1.5289,1.5277,1.5248,1.5227,1.5222,1.5206,1.5173,1.5168,1.5196,1.514,1.5131,1.5087,1.5069,1.5096,1.5092,1.497,1.4969,1.4967,1.4965,0,0,0,0,0,0,1.5352,1.5339,1.5325,1.5289,1.5276,1.5217,1.5226,1.522,1.52,1.52,1.5162,1.5156,1.514,1.5093,1.5083,1.5064,1.5089,1.4972,1.497,1.4968,1.4966,1.4963,1.496,0,0,0,0,0,1.5356,1.5326,1.5324,1.5314,1.5257,1.5216,1.5208,1.5191,1.5199,1.5183,1.5161,1.5157,1.5073,1.5089,1.5078,1.5057,1.4973,1.497,1.4968,1.4968,1.4964,1.4961,0,0,0,0,0,0,1.536,1.5321,1.5318,1.5277,1.525,1.5214,1.5193,1.5188,1.5157,1.5158,1.5138,1.5129,1.5086,1.5067,1.5086,1.5013,1.5023,1.5018,1.5027,1.5023,1.502,1.5025,1.5086,0,0,0,0,0,1.5356,1.5328,1.5295,1.5261,1.5248,1.5223,1.5204,1.5194,1.5164,1.5152,1.5128,1.5098,1.5064,1.5042,1.501,1.4964,1.4954,1.4944,1.4941,1.4939,1.4934,1.4906,1.4901,1.4958,1.4958,1.4958,0,0,1.5347,1.5323,1.5306,1.5261,1.5239,1.5208,1.5213,1.5181,1.5157,1.5147,1.5104,1.5085,1.505,1.5004,1.4983,1.4987,1.4916,1.4935,1.4934,1.493,1.4903,1.4897,1.4893,1.4956,1.4956,1.4957,0,0,1.5316,1.5295,1.5264,1.5242,1.5208,1.5192,1.5184,1.5149,1.5136,1.5093,1.5085,1.5055,1.4998,1.4973,1.4953,1.491,1.4904,1.49,1.4884,1.4857,1.4852,1.4848,1.4831,1.4825,1.4896,1.4896,1.4896,0,1.5309,1.5264,1.5248,1.5216,1.5195,1.5186,1.5153,1.5131,1.5088,1.5073,1.5079,1.5006,1.4982,1.493,1.4919,1.4904,1.4892,1.4904,1.4855,1.485,1.4846,1.4829,1.4823,1.4895,1.4895,1.4895,1.4895,0,1.5256,1.5225,1.5203,1.5163,1.514,1.5107,1.5085,1.5063,1.5054,1.5036,1.4991,1.4961,1.4922,1.4909,1.4899,1.4854,1.4857,1.4859,1.4869,1.484,1.4824,1.4818,1.4895,1.4895,1.4895,1.4895,0,0,1.5226,1.5177,1.5169,1.515,1.5112,1.5086,1.5051,1.5014,1.4995,1.4965,1.4934,1.4885,1.4886,1.4863,1.4851,1.4827,1.4792,1.4831,1.483,1.4824,1.4738,1.4736,1.4729,1.4789,1.4787,1.4786,1.474,0,1.5189,1.513,1.5114,1.5062,1.5032,1.5021,1.4991,1.4963,1.4945,1.4914,1.4893,1.4859,1.4864,1.4849,1.4825,1.4802,1.4775,1.4805,1.4758,1.4756,1.4766,1.4721,1.472,1.4678,1.4734,1.4733,1.4732,0,1.5139,1.5109,1.5055,1.5018,1.5005,1.4978,1.4941,1.4913,1.488,1.4868,1.4842,1.4831,1.4792,1.4805,1.475,1.4771,1.475,1.4735,1.4733,1.4728,1.4742,1.4713,1.4665,1.4658,1.4723,1.4723,1.4724,0,1.5121,1.5066,1.5026,1.501,1.4968,1.4949,1.493,1.4898,1.4875,1.4842,1.4827,1.479,1.4769,1.4739,1.4718,1.4729,1.4664,1.4675,1.4651,1.4652,1.4637,1.4639,1.4584,1.4626,1.4626,1.4626,1.4626,0,1.5081,1.5048,1.5017,1.4993,1.4954,1.4935,1.4897,1.4877,1.4848,1.4818,1.4806,1.4778,1.4752,1.4719,1.4701,1.4657,1.4648,1.4636,1.4632,1.4636,1.4638,1.4622,1.4624,1.4625,1.4625,1.4625,1.4626,0,1.5054,1.5033,1.4988,1.4951,1.4941,1.4914,1.4881,1.4856,1.4837,1.4798,1.4788,1.4757,1.4718,1.4694,1.4643,1.4632,1.4582,1.458,1.4594,1.4592,1.4569,1.4571,1.4501,1.449,1.4541,1.4541,1.454,0,1.503,1.5004,1.4964,1.4944,1.4925,1.4892,1.4869,1.4848,1.4824,1.4783,1.4762,1.4722,1.4689,1.4626,1.4598,1.4558,1.4554,1.4532,1.4548,1.4553,1.4552,1.4553,1.4549,1.4529,1.4529,1.4528,1.4528,0,1.4988,1.4979,1.4947,1.4911,1.4885,1.4855,1.4825,1.4809,1.4782,1.4756,1.4716,1.469,1.4638,1.4598,1.4556,1.4534,1.4526,1.4523,1.4516,1.452,1.4529,1.4522,1.4586,1.4525,1.4525,1.4526,1.4526,1.4526,1.4961,1.4937,1.4905,1.4869,1.4845,1.4817,1.4791,1.4768,1.4735,1.4692,1.4681,1.4639,1.4604,1.4547,1.4523,1.4488,1.4491,1.448,1.4477,1.4475,1.4474,1.4535,1.4481,1.4481,1.4481,1.4481,1.4481,0,1.4918,1.4896,1.4864,1.4823,1.4794,1.4791,1.4757,1.4733,1.4696,1.4665,1.4632,1.4585,1.4545,1.4513,1.4472,1.445,1.4445,1.4439,1.444,1.4435,1.4474,1.4484,1.4444,1.4444,1.4444,1.4444,1.4444,1.4444,1.4892,1.4851,1.4837,1.4782,1.476,1.4719,1.47,1.4673,1.4648,1.4596,1.4564,1.4544,1.4511,1.4467,1.4429,1.4421,1.4405,1.4401,1.4391,1.4428,1.4432,1.4436,1.4446,1.4398,1.4398,1.4355,1.4354,1.4354]}]]